This demonstration page uses our WeatherBlox Daily Observations layout. Learn more.

Left ArrowRight Arrow

Hourly Observations for June 22, 2020

Temp ( °F °C ) Dew Point ( °F °C ) Humidity (%) Winds ( mph kmh ) Pressure ( in mb ) Visibility ( mi km ) Precip ( " mm )
12:53 am 00:53 Partly Cloudy 70 21.1 66 18.9 87 87 Calm 30.02 1017 10 16 0.00 0.00
1:53 am 01:53 Clear 68 20 65 18.3 90 90 WSW 3 6 30.01 1016 10 16 0.00 0.00
2:53 am 02:53 Clear 69 20.6 66 18.9 90 90 SW 3 6 29.99 1016 10 16 0.00 0.00
3:53 am 03:53 Clear 66 18.9 64 17.8 93 93 Calm 30.01 1016 7 11 0.00 0.00
4:53 am 04:53 Partly Cloudy 69 20.6 66 18.9 90 90 SSW 3 6 30.02 1017 10 16 0.00 0.00
5:53 am 05:53 Mostly Clear 68 20 65 18.3 90 90 Calm 30.02 1017 10 16 0.00 0.00
6:53 am 06:53 Sunny 67 19.4 65 18.3 93 93 Calm 30.02 1017 10 16 0.00 0.00
7:53 am 07:53 Sunny 70 21.1 66 18.9 87 87 S 3 6 30.03 1017 10 16 0.00 0.00
8:53 am 08:53 Sunny 73 22.8 67 19.4 81 81 VRB 3 6 30.04 1017 10 16 0.00 0.00
9:53 am 09:53 Sunny 77 25 69 20.6 77 77 WSW 6 9 30.04 1017 10 16 0.00 0.00
10:53 am 10:53 Sunny 80 26.7 68 20 67 67 SW 5 7 30.04 1017 10 16 0.00 0.00
11:53 am 11:53 Sunny 84 28.9 68 20 59 59 W 7 11 30.04 1017 10 16 0.00 0.00
12:53 pm 12:53 Sunny with Nearby Thunderstorms 86 30 67 19.4 53 53 SW 7 11 30.02 1017 10 16 0.00 0.00
1:16 pm 13:16 Mostly Cloudy with Thunderstorms 85 29.4 68 20 57 57 WSW 9 15 30.00 1016 10 16 0.00 0.00
1:45 pm 13:45 Mostly Cloudy with Light Rain 80 26.7 68 20 67 67 N 5 7 30.00 1016 10 16 0.00 0.00
1:53 pm 13:53 Mostly Cloudy 81 27.2 69 20.6 67 67 NNW 7 11 30.01 1016 10 16 0.00 0.00
2:53 pm 14:53 Sunny 87 30.6 68 20 53 53 SSW 9 15 29.98 1015 10 16 0.00 0.00
3:53 pm 15:53 Partly Cloudy with Nearby Thunderstorms 88 31.1 68 20 52 52 WSW 10 17 29.97 1015 10 16 0.00 0.00
4:10 pm 16:10 Mostly Cloudy with Nearby Thunderstorms 78 25.6 67 19.4 69 69 S 16 26 29.99 1016 2 3 0.07 1.78
4:13 pm 16:13 Mostly Cloudy with Nearby Thunderstorms 76 24.4 69 20.6 79 79 ESE 16 26 29.98 1015 1 1 0.13 3.30
4:23 pm 16:23 Mostly Cloudy 77 25 69 20.6 77 77 SE 7 11 29.97 1015 10 16 0.27 6.86
4:53 pm 16:53 Partly Cloudy 81 27.2 70 21.1 69 69 SSW 6 9 29.97 1015 10 16 0.32 8.13
5:53 pm 17:53 Mostly Sunny 83 28.3 72 22.2 70 70 SSW 6 9 29.95 1014 10 16 0.00 0.00
6:00 pm 18:00 Partly Cloudy with Nearby Thunderstorms 83 28.3 71 21.7 67 67 SSW 9 15 29.94 1014 9 14 0.00 0.00
6:22 pm 18:22 Windy with Storms Likely 74 23.3 68 20 82 82 SSW 23 37 30.01 1016 3 4 0.03 0.76
6:25 pm 18:25 Cloudy with Strong Thunderstorms 72 22.2 67 19.4 84 84 SSW 17 28 30.03 1017 1 1 0.06 1.52
6:28 pm 18:28 Cloudy with Strong Thunderstorms 71 21.7 67 19.4 87 87 SSW 9 15 30.02 1017 1 1 0.09 2.29
6:39 pm 18:39 Cloudy with Thunderstorms 70 21.1 67 19.4 90 90 SW 5 7 29.99 1016 1 2 0.22 5.59
6:42 pm 18:42 Cloudy with Thunderstorms 70 21.1 68 20 93 93 W 5 7 29.98 1015 2 3 0.25 6.35
6:50 pm 18:50 Cloudy with Thunderstorms 70 21 68 20 94 94 SW 3 6 29.98 1015 6 10 0.33 8.38
6:53 pm 18:53 Cloudy with Thunderstorms 71 21.7 68 20 90 90 Calm 29.98 1015 9 14 0.35 8.89
7:00 pm 19:00 Mostly Cloudy 71 21.7 68 20 90 90 S 3 6 29.97 1015 10 16 0.06 1.52
7:53 pm 19:53 Partly Cloudy 72 22.2 69 20.6 91 91 SE 5 7 30.00 1016 10 16 0.24 6.10
8:53 pm 20:53 Mostly Clear 72 22.2 68 20 87 87 SW 3 6 29.98 1015 10 16 0.00 0.00
9:53 pm 21:53 Clear 71 21.7 68 20 90 90 Calm 29.98 1015 10 16 0.00 0.00
10:53 pm 22:53 Clear 71 21.7 68 20 90 90 Calm 29.99 1016 10 16 0.00 0.00
11:53 pm 23:53 Cloudy 71 21.7 68 20 90 90 SSW 3 6 29.99 1016 10 16 0.00 0.00

Powered by AerisWeather